Regional Weather Roundup
Issued by NWS Cleveland, OH

Home | Current Version | Previous Version | Graphics & Text | Print | Product List | Glossary On
Versions: 1 2 3 4 5 6 7 8 9 10 11 12 13 14 15 16 17 18 19 20 21 22 23 24 25 26 27 28 29 30 31 32 33 34 35 36 37 38 39 40 41 42 43 44 45 46 47 48 49 50
000
ASUS41 KCLE 211900
RWRCLE
OHIO REGIONAL WEATHER ROUNDUP
NATIONAL WEATHER SERVICE WILMINGTON, OH
300 PM EDT TUE OCT 21 2014

NOTE: "FAIR" INDICATES FEW OR NO CLOUDS BELOW 12,000 FEET WITH NO
SIGNIFICANT WEATHER AND/OR OBSTRUCTIONS TO VISIBILITY.

OHZ001>008-015>018-024>027-034-035-043-044-212000-
   NORTHWEST OHIO

CITY           SKY/WX    TMP DP  RH WIND       PRES   REMARKS
DEFIANCE       CLOUDY    51  40  65 N12       30.08S
FINDLAY        CLOUDY    50  41  71 N16       30.04R
TOLEDO EXPRESS CLOUDY    48  38  68 N13G23    30.07R
TOLEDO METCALF CLOUDY    49  38  65 N13G23    30.07R
LIMA           CLOUDY    50  42  74 N15G22    30.05R
$$

OHZ009>014-019>023-028>033-038-089-212000-
   NORTHEAST OHIO

CITY           SKY/WX    TMP DP  RH WIND       PRES   REMARKS
CLE-HOPKINS    CLOUDY    48  43  82 NW15      30.00R
CLE-LAKEFRONT  LGT RAIN  50  44  80 NW18G26   29.96S
CUY CO. ARPT   CLOUDY    50  46  87 N18       29.96R
LORAIN-ELYRIA  CLOUDY    47  43  86 N21       30.00R
ASHTABULA      CLOUDY    49  44  83 NW5       29.93R
AKRON-CANTON   CLOUDY    50  42  74 N16       29.94S
WOOSTER        NOT AVBL
MANSFIELD      CLOUDY    47  43  86 NW20G28   29.99R
YOUNGSTOWN     LGT RAIN  47  45  93 NW16      29.92R FOG
$$

OHZ042-051>053-060>062-070>072-077>081-212000-
  SOUTHWEST OHIO

CITY           SKY/WX    TMP DP  RH WIND       PRES   REMARKS
CINC-COVINGTON CLOUDY    55  38  52 N13       30.04S
CINC-LUNKEN    CLOUDY    53  41  63 N13       30.06S
HAMILTON       CLOUDY    53  43  68 N8        30.06S
DAYTON         NOT AVBL
WRIGHT-PAT AFB NOT AVBL
DAYTON GENERAL PTSUNNY   52  43  71 N13G22    30.03S
WILMINGTON     LGT RAIN  51  42  71 NW14G23   30.02F
$$

OHZ036-037-039>041-045>050-054>059-063>069-073>076-082>088-212000-
  CENTRAL AND SOUTHEAST OHIO

CITY           SKY/WX    TMP DP  RH WIND       PRES   REMARKS
COLUMBUS       CLOUDY    50  45  83 NW15      29.99R
OSU AIRPORT    CLOUDY    50  45  83 NW14      30.00R
BOLTON FIELD   NOT AVBL
RICKENBACK AFB NOT AVBL
NEWARK         LGT RAIN  50  46  86 NW13G21   29.98R FOG
MARION         CLOUDY    47  42  83 N15G23    30.02S
LANCASTER      CLOUDY    51  45  79 NW9       29.99R
ZANESVILLE     LGT RAIN  49  46  90 NW12      29.96R
NEW PHILLY     CLOUDY    51  46  83 NW13G22   29.95S
$$



USA.gov is the U.S. government's official web portal to all federal, state and local government web resources and services.